Temp
45 38 29 38 41 43 39 40 37 38 46 42 42 41 43 44 43 42 41 43 43 47 51 53 53 53 53 55 60 62 62 65 65 63 62 62 63 63 64 65 68 69 68 66
40 36 44 47 46 42 39 32 31 38 45 43 41 38 40 41 42 40 39 39 42 45 48 50 51 51 50 52 53 61 63 63 64 64 64 63 64 64 65 65 67 68 68 68
37 42 49 46 43 41 36 30 32 32 40 42 37 35 36 43 43 44 42 41 41 44 46 48 49 49 48 48 51 54 55 59 63 64 63 61 62 62 62 62 62 64 67 65
39 47 44 42 41 41 33 42 37 38 38 31 36 25 32 36 38 40 40 40 42 44 46 48 48 48 48 49 51 52 52 53 55 58 62 62 61 60 61 63 63 62 62 61
38 40 38 39 42 43 39 44 41 38 38 36 29 26 31 36 33 35 39 42 44 45 45 45 47 48 49 49 50 51 52 52 52 53 55 54 54 59 60 60 60 59 58 59
40 46 43 42 45 44 46 41 40 38 37 27 27 25 23 31 33 36 39 41 42 44 45 46 48 49 48 49 49 50 50 50 51 51 52 52 52 53 53 55 56 56 56 56
39 39 43 45 39 44 40 34 19 19 20 21 31 27 26 35 38 39 39 40 41 43 43 44 44 45 46 46 47 49 48 47 49 50 50 50 50 51 51 52 52 52 53 53
29 26 39 44 39 34 35 35 22 16 19 22 32 22 26 40 41 42 42 43 44 44 44 44 44 44 44 44 46 46 46 46 47 47 48 49 50 50 50 51 51 51 51 51
30 31 42 43 43 40 36 30 37 29 23 23 25 29 38 41 41 42 43 44 43 43 43 44 45 45 45 45 45 45 46 46 46 46 47 47 48 49 49 49 50 50 50 51
36 29 39 41 42 42 37 40 28 25 14 16 24 25 28 34 35 39 38 39 42 44 44 45 45 45 46 45 46 46 46 45 46 47 47 46 47 48 48 49 48 48 48 49
38 34 33 39 33 32 34 33 35 34 29 24 21 24 36 37 37 36 37 41 40 42 43 43 44 45 45 46 46 44 45 44 46 46 47 47 46 47 48 47 47 48 48 49
38 33 22 29 37 39 36 33 34 25 25 27 29 25 41 40 39 39 38 41 41 42 41 42 43 43 43 43 44 44 45 44 44 46 46 46 46 47 47 46 47 47 47 47
39 22 13 25 31 36 33 36 36 35 31 27 23 25 40 40 38 39 38 38 41 41 40 41 41 41 41 42 42 42 43 43 44 45 44 44 45 45 45 46 46 46 46 45
42 30 25 22 27 31 29 32 34 33 22 27 28 28 33 36 37 37 38 38 38 40 41 40 39 40 41 41 40 41 42 42 43 43 43 42 42 44 44 44 44 44 43 43
37 22 28 29 30 31 31 30 31 29 31 26 29 29 34 37 36 37 39 40 41 40 40 40 39 39 39 40 39 40 40 41 41 41 41 40 41 42 42 42 42 42 41 41
36 18 24 17 29 28 26 29 30 30 31 30 31 31 41 41 39 36 40 40 40 39 40 40 40 40 40 40 39 40 40 40 40 40 39 39 40 40 40 41 41 41 41 40
30 21 13 11 25 19 17 24 29 29 32 35 28 36 38 37 40 39 39 41 40 40 40 40 39 40 40 39 40 38 38 39 39 38 38 38 38 38 38 39 39 39 39 39
25 20 12 11 10 7 29 33 32 31 34 37 37 39 41 43 42 40 41 40 41 41 41 40 39 38 39 39 38 38 38 38 37 36 36 35 35 35 35 36 36 37 37 37
33 27 10 11 1 21 30 30 30 30 31 37 38 39 38 38 39 35 42 42 41 41 41 40 39 39 38 37 37 37 37 37 36 34 34 33 33 33 33 33 33 34 35 34
31 30 20 4 5 7 29 31 35 35 23 36 40 38 37 39 33 33 40 41 41 42 41 40 39 39 38 36 36 36 35 35 34 33 33 33 33 33 33 32 32 33 32 33
24 16 13 4 5 18 31 35 36 21 30 34 39 39 39 39 39 40 40 40 40 40 40 40 38 38 37 35 35 34 34 34 33 33 33 33 32 32 32 31 30 31 31 32
22 19 13 9 9 15 34 33 31 35 35 36 37 38 39 38 39 41 41 39 38 38 38 37 36 35 34 34 34 34 33 33 32 31 31 29 28 30 31 27 29 31 32 30
22 28 22 26 27 35 37 35 37 37 37 35 37 37 41 36 36 37 38 37 37 37 35 34 34 34 34 34 33 33 33 31 28 23 22 22 24 28 28 27 28 27 29 32
29 33 27 29 34 33 35 36 37 38 39 38 38 37 38 37 36 35 35 34 34 34 33 33 33 33 33 32 29 30 30 25 18 19 21 23 24 26 25 27 29 26 26 27
29 31 28 26 32 32 35 38 37 37 38 37 36 36 37 36 34 36 33 33 33 33 33 31 29 27 26 24 23 20 22 17 20 19 21 22 23 22 25 25 26 27 28 30
31 30 31 27 36 40 37 38 37 36 36 36 35 34 35 36 35 34 33 33 33 31 27 25 23 22 21 19 19 17 14 13 14 18 21 21 22 21 22 24 26 33 36 36
MSLP
1018.96 1019.36 1019.33 1019.28 1019.47 1020.01 1020.13 1020.13 1020.02 1019.25 1018.64 1018.53 1018.49 1018.86 1019.17 1019.41 1019.43 1018.99 1019.10 1018.68 1017.75 1016.54 1015.45 1014.63 1013.74 1012.99 1012.28 1011.24 1009.93 1009.40 1009.59 1009.90 1010.57 1010.99 1011.45 1012.18 1012.28 1013.04 1013.27 1013.57 1013.83 1014.09 1014.34 1014.79
1019.05 1019.37 1019.22 1018.87 1018.96 1019.65 1019.88 1020.00 1019.91 1019.52 1018.98 1018.82 1019.01 1019.30 1019.81 1020.02 1020.02 1020.18 1020.12 1019.47 1018.30 1016.95 1015.88 1015.18 1014.40 1013.83 1013.07 1012.21 1011.07 1009.47 1009.57 1009.95 1010.42 1010.58 1011.13 1012.02 1012.17 1012.43 1012.99 1013.28 1013.37 1013.59 1013.94 1014.23
1018.72 1018.93 1018.89 1018.87 1018.71 1018.88 1019.69 1020.04 1020.16 1020.01 1019.30 1019.46 1019.69 1019.75 1020.11 1020.19 1020.45 1020.19 1020.07 1019.86 1019.07 1017.68 1016.58 1015.90 1015.03 1014.51 1013.73 1013.47 1012.42 1011.14 1008.95 1009.41 1010.26 1010.59 1011.20 1011.77 1012.44 1012.04 1012.82 1013.16 1013.37 1013.46 1013.52 1013.92
1018.64 1018.36 1018.66 1018.74 1018.81 1019.27 1019.45 1019.15 1019.37 1019.42 1019.46 1019.86 1020.29 1020.74 1020.65 1020.60 1020.61 1020.49 1020.09 1019.72 1019.23 1018.21 1017.21 1016.31 1015.70 1015.15 1014.54 1014.27 1012.58 1013.65 1010.64 1010.91 1011.28 1011.15 1011.30 1011.84 1011.94 1011.96 1012.30 1012.81 1013.11 1013.66 1013.67 1014.36
1018.58 1018.36 1018.85 1019.07 1018.77 1019.13 1019.09 1018.59 1018.88 1019.24 1019.61 1020.18 1020.65 1021.19 1021.13 1021.03 1020.80 1020.60 1020.29 1019.63 1018.99 1018.74 1018.10 1017.26 1016.28 1015.89 1015.48 1014.58 1012.91 1014.79 1013.04 1011.86 1012.12 1012.13 1012.21 1012.19 1012.74 1012.61 1012.49 1013.09 1013.55 1014.05 1014.29 1014.66
1018.83 1018.19 1018.46 1018.46 1018.66 1018.61 1018.58 1018.84 1018.77 1019.19 1019.78 1020.57 1020.69 1021.20 1021.66 1021.57 1021.64 1021.05 1020.63 1020.10 1019.61 1019.02 1018.59 1018.00 1017.32 1016.75 1016.47 1015.96 1015.25 1016.18 1012.75 1012.23 1012.69 1012.25 1012.82 1013.68 1014.14 1013.50 1013.60 1013.83 1014.01 1014.32 1014.98 1015.36
1019.08 1018.75 1018.49 1018.67 1018.88 1018.72 1018.85 1019.26 1019.86 1020.09 1020.46 1021.32 1020.91 1021.28 1021.79 1021.45 1021.48 1021.49 1020.88 1020.41 1020.20 1019.80 1019.07 1018.75 1018.41 1017.93 1017.67 1017.31 1016.60 1016.51 1014.97 1014.69 1015.76 1014.12 1014.24 1014.45 1014.33 1014.78 1014.82 1014.90 1014.83 1015.57 1015.71 1016.05
1019.68 1019.23 1019.12 1019.10 1019.26 1019.64 1019.46 1019.73 1020.63 1020.79 1021.26 1021.35 1021.03 1021.29 1021.28 1020.62 1020.67 1021.11 1020.85 1020.34 1019.90 1019.54 1019.29 1019.01 1018.70 1018.34 1018.27 1018.32 1018.32 1017.16 1015.66 1015.96 1017.25 1015.29 1015.01 1015.75 1015.91 1016.29 1015.60 1016.41 1015.87 1015.95 1016.23 1016.74
1020.09 1019.43 1018.81 1019.27 1019.63 1020.08 1019.58 1019.82 1020.24 1020.87 1021.59 1021.74 1021.49 1021.14 1020.70 1020.37 1020.45 1020.83 1021.00 1020.36 1020.17 1019.87 1019.46 1019.13 1018.75 1018.61 1018.78 1019.29 1018.79 1017.62 1016.78 1016.70 1017.04 1016.97 1017.05 1017.01 1016.95 1016.63 1016.88 1017.41 1016.58 1016.40 1017.38 1017.20
1020.55 1020.19 1019.66 1019.48 1019.99 1020.02 1019.94 1019.90 1020.30 1021.02 1021.88 1021.80 1021.45 1021.13 1020.62 1020.59 1020.65 1020.76 1021.29 1021.18 1020.76 1020.36 1020.22 1020.42 1020.56 1020.59 1020.45 1020.52 1019.97 1018.62 1017.16 1017.32 1016.65 1017.49 1017.64 1017.50 1017.52 1017.52 1017.36 1017.81 1017.58 1017.56 1018.54 1017.28
1020.89 1020.87 1020.66 1020.42 1020.78 1020.76 1020.57 1020.22 1020.36 1020.77 1021.41 1021.78 1021.51 1021.01 1019.92 1020.33 1020.60 1020.93 1021.02 1021.45 1021.49 1021.29 1020.97 1020.73 1020.69 1020.75 1020.14 1019.71 1019.09 1018.48 1018.20 1018.07 1017.88 1018.05 1018.21 1018.81 1018.90 1018.23 1018.38 1018.11 1018.31 1018.48 1018.40 1018.20
1021.29 1021.83 1021.79 1021.59 1021.30 1021.09 1020.98 1020.96 1020.87 1021.25 1021.62 1021.59 1021.45 1020.90 1020.10 1020.36 1020.58 1020.91 1021.22 1021.22 1021.41 1021.40 1021.44 1021.32 1021.26 1021.37 1021.26 1020.93 1020.33 1019.89 1019.51 1019.06 1019.26 1019.41 1019.60 1019.46 1019.31 1018.94 1018.81 1018.90 1018.85 1018.72 1018.89 1018.75
1021.60 1022.72 1023.11 1022.72 1022.60 1021.90 1021.57 1021.29 1021.09 1021.15 1021.35 1021.36 1021.49 1020.91 1020.55 1020.65 1020.98 1021.09 1021.28 1021.33 1021.36 1021.76 1021.99 1021.89 1021.67 1021.59 1021.48 1021.40 1021.14 1021.05 1020.81 1020.65 1020.38 1020.63 1020.49 1020.20 1019.87 1019.73 1019.24 1019.30 1019.43 1019.23 1018.86 1018.77
1022.10 1023.02 1023.95 1023.69 1023.15 1022.72 1022.42 1021.78 1021.39 1021.57 1021.84 1021.10 1020.63 1020.40 1020.71 1020.87 1021.19 1021.25 1021.49 1021.49 1021.70 1021.86 1022.13 1022.46 1022.51 1022.28 1022.00 1021.89 1021.71 1021.63 1021.53 1021.55 1021.31 1021.06 1020.74 1020.73 1020.43 1020.14 1019.97 1019.87 1019.56 1019.46 1019.41 1019.14
1022.88 1023.60 1024.37 1024.52 1024.23 1023.50 1022.65 1022.12 1021.76 1021.78 1021.12 1021.11 1020.19 1020.03 1019.67 1019.92 1020.59 1020.94 1021.14 1021.44 1021.67 1021.87 1022.01 1022.22 1022.32 1022.50 1022.38 1022.22 1022.16 1021.96 1022.04 1022.00 1021.60 1021.38 1021.36 1021.21 1020.80 1020.53 1020.24 1020.00 1019.95 1019.80 1019.86 1019.73
1023.52 1024.31 1025.45 1025.69 1024.68 1024.23 1022.98 1021.98 1021.42 1021.21 1020.94 1020.17 1019.80 1019.38 1018.83 1019.03 1020.05 1020.95 1021.15 1021.42 1021.78 1022.07 1022.27 1022.44 1022.63 1022.76 1022.81 1022.72 1022.61 1022.48 1022.34 1022.04 1022.14 1021.74 1021.73 1021.54 1021.39 1021.15 1020.84 1020.62 1020.43 1020.54 1020.43 1020.49
1024.39 1025.22 1026.92 1027.15 1026.07 1025.17 1023.28 1020.58 1020.20 1020.08 1019.42 1019.12 1018.86 1018.14 1018.17 1018.90 1019.45 1020.06 1020.88 1021.15 1021.48 1021.88 1022.31 1022.65 1022.84 1022.94 1022.77 1022.83 1022.92 1023.02 1022.84 1022.47 1022.37 1022.17 1021.91 1021.81 1021.52 1021.25 1021.11 1020.76 1020.64 1020.49 1020.55 1020.45
1024.81 1026.03 1027.04 1028.44 1027.72 1025.41 1020.53 1019.20 1018.89 1019.11 1018.39 1017.92 1017.54 1017.23 1017.46 1017.69 1018.42 1019.22 1020.12 1020.85 1021.37 1021.74 1022.04 1022.37 1022.73 1022.98 1022.92 1022.99 1022.92 1022.60 1022.57 1022.68 1022.67 1022.62 1022.59 1022.47 1022.19 1021.82 1021.79 1021.42 1021.39 1021.23 1021.12 1021.03
1024.53 1026.08 1027.57 1028.88 1028.15 1023.99 1019.82 1018.97 1018.64 1018.37 1017.38 1016.78 1017.16 1017.08 1017.28 1017.84 1018.64 1019.57 1019.73 1020.36 1020.99 1021.48 1021.96 1022.36 1022.43 1022.70 1023.02 1023.19 1023.29 1023.02 1023.05 1023.13 1023.06 1022.92 1022.83 1022.44 1022.14 1022.17 1022.04 1021.78 1021.78 1021.74 1021.57 1021.45
1025.00 1025.60 1027.08 1028.94 1028.03 1024.42 1019.82 1018.33 1017.83 1017.50 1016.87 1015.50 1015.97 1016.84 1017.36 1017.62 1018.91 1019.15 1019.48 1020.30 1021.07 1021.43 1021.90 1022.26 1022.45 1022.66 1022.93 1023.20 1023.26 1023.06 1023.16 1023.10 1023.16 1022.96 1022.96 1022.61 1022.55 1022.51 1022.66 1022.55 1022.55 1022.40 1022.24 1021.96
1025.54 1026.38 1026.83 1027.33 1026.25 1022.59 1018.73 1017.99 1017.73 1017.74 1016.18 1014.95 1015.39 1016.20 1017.02 1017.29 1017.28 1018.12 1019.28 1020.16 1020.73 1021.29 1021.78 1022.22 1022.62 1022.86 1023.12 1023.33 1023.34 1023.39 1023.30 1023.33 1023.29 1023.24 1023.37 1023.29 1023.23 1023.23 1023.00 1022.76 1022.81 1022.70 1022.40 1022.17
1023.46 1024.54 1025.46 1025.47 1024.50 1021.15 1017.35 1017.93 1017.33 1015.39 1015.07 1014.63 1015.02 1015.71 1016.55 1017.18 1017.62 1018.22 1019.13 1020.08 1020.87 1021.41 1021.94 1022.37 1022.92 1023.24 1023.37 1023.43 1023.46 1023.74 1023.82 1023.85 1023.87 1023.86 1023.72 1023.64 1023.58 1023.43 1023.26 1023.18 1023.08 1023.09 1022.90 1022.43
1021.39 1019.96 1020.76 1020.20 1018.49 1016.82 1016.06 1015.26 1015.19 1015.14 1015.22 1015.03 1015.07 1015.69 1016.19 1017.29 1017.94 1018.53 1019.31 1020.18 1020.96 1021.46 1022.01 1022.51 1023.00 1023.35 1023.51 1023.58 1023.71 1024.00 1024.05 1024.05 1024.22 1024.45 1024.47 1024.12 1023.74 1023.47 1023.32 1023.38 1023.31 1023.07 1022.88 1022.72
1018.91 1018.22 1018.39 1018.24 1016.02 1015.90 1015.58 1015.13 1014.90 1014.83 1014.94 1014.96 1015.22 1015.72 1016.20 1017.17 1017.97 1018.65 1019.43 1020.36 1020.98 1021.58 1022.16 1022.57 1023.13 1023.68 1023.82 1023.93 1024.28 1024.49 1024.46 1024.63 1024.85 1025.04 1024.90 1024.49 1024.38 1024.01 1023.59 1023.25 1023.11 1022.73 1022.37 1022.06
1016.50 1016.53 1016.57 1016.42 1015.26 1015.19 1014.79 1014.41 1014.45 1014.74 1014.82 1014.91 1015.34 1015.76 1016.21 1016.95 1018.03 1018.72 1019.66 1020.35 1020.86 1021.55 1022.20 1022.64 1023.36 1024.02 1024.20 1024.50 1024.88 1024.85 1024.96 1025.08 1025.67 1025.57 1025.28 1024.87 1024.48 1024.19 1023.65 1023.11 1022.80 1022.50 1021.99 1021.84
1014.49 1013.85 1014.24 1013.70 1012.83 1012.94 1012.81 1012.86 1013.69 1014.57 1014.79 1014.61 1015.12 1015.92 1016.44 1016.69 1017.79 1018.66 1019.49 1019.95 1020.66 1021.46 1022.13 1022.93 1023.58 1024.04 1024.55 1024.98 1025.01 1024.85 1025.08 1025.36 1025.88 1025.74 1025.44 1025.15 1024.75 1024.28 1023.83 1023.37 1022.78 1022.24 1021.78 1021.29
Wind_Speed
3 5 2 3 2 6 6 5 7 6 4 3 5 5 11 12 12 15 15 14 16 16 14 12 13 15 15 12 8 10 12 11 10 8 7 6 8 3 3 4 6 8 9 8
5 2 2 2 4 5 4 2 5 6 3 2 6 4 7 11 10 10 12 15 19 17 13 12 12 13 12 14 16 7 13 12 10 9 8 4 6 4 3 3 5 6 6 8
3 2 1 3 5 1 3 3 3 7 4 3 7 1 8 8 7 11 11 13 17 17 11 11 13 13 12 14 15 11 10 3 4 9 7 3 2 3 4 3 3 4 5 5
2 4 1 4 2 2 4 7 6 5 2 2 4 5 4 10 10 14 13 9 12 16 14 13 12 14 14 12 15 12 13 14 10 9 7 8 6 5 4 5 3 3 7 6
3 4 3 3 1 2 8 7 6 2 1 3 3 2 5 9 12 16 12 11 8 10 13 16 15 13 14 14 18 11 11 17 16 16 14 9 8 4 3 4 6 8 8 8
7 4 5 3 7 5 7 7 3 3 2 1 6 4 6 9 10 12 10 12 14 12 11 14 15 15 14 14 13 9 15 17 19 15 18 16 12 11 10 9 6 7 7 5
3 2 3 1 4 4 7 5 4 6 4 3 0 6 5 5 5 3 8 10 11 11 11 13 14 13 13 13 15 10 16 19 12 17 17 15 15 13 12 11 10 9 6 5
1 5 1 2 1 3 4 1 4 4 1 4 4 1 5 3 4 3 3 2 6 7 7 8 9 11 14 14 11 9 15 16 11 11 19 15 13 6 9 7 7 7 7 2
2 1 2 1 1 1 4 3 2 1 2 2 2 1 3 3 3 6 6 9 8 8 9 11 12 11 10 7 10 10 11 12 10 11 11 10 9 11 9 7 8 7 5 4
1 1 1 1 1 4 3 2 2 3 2 3 2 2 3 3 2 5 6 6 8 7 8 7 5 4 5 4 4 8 12 11 11 9 8 8 8 8 8 6 8 7 3 7
1 3 4 4 1 2 5 2 2 2 4 2 2 4 5 6 5 5 4 5 4 5 6 6 7 8 7 9 12 11 11 10 10 8 7 6 5 6 4 5 5 4 4 4
1 3 1 1 2 1 1 2 0 4 3 2 1 5 4 6 7 6 4 5 4 5 5 6 6 5 6 6 8 10 11 11 8 8 6 6 6 6 6 5 4 5 5 4
4 2 3 6 6 4 3 3 2 1 2 4 4 5 2 6 6 5 5 4 4 5 5 6 6 6 6 7 7 7 8 8 6 5 5 6 6 5 6 6 5 5 5 5
2 3 4 6 3 2 4 3 3 4 2 2 5 5 6 7 8 7 6 5 4 5 4 3 4 5 6 6 6 7 7 6 5 5 6 6 6 5 5 5 5 6 6 6
2 4 4 5 8 5 6 8 8 7 7 5 4 7 8 12 10 10 8 6 6 5 3 4 4 4 6 6 6 6 5 5 5 6 6 6 6 6 5 6 5 6 5 5
2 2 4 5 4 7 8 11 10 11 8 8 7 9 9 9 7 7 8 7 6 4 4 4 3 4 5 5 5 5 6 7 6 7 7 5 5 5 6 5 6 5 5 6
5 5 4 6 4 6 11 12 17 6 7 11 10 9 5 6 13 12 9 9 9 8 7 5 4 3 3 3 3 4 4 4 6 6 6 7 6 7 7 6 5 5 5 5
5 5 4 4 5 2 7 4 5 13 8 11 5 6 12 16 11 8 7 9 8 7 6 5 4 2 2 2 3 4 5 5 4 5 6 5 5 6 6 6 6 5 4 4
1 4 2 4 4 9 7 5 7 8 7 14 12 5 6 8 6 2 8 8 8 7 6 5 5 3 3 3 2 3 4 4 4 5 5 6 6 6 6 7 7 5 5 4
3 3 5 3 4 8 5 2 3 4 6 6 11 9 10 9 9 6 8 8 8 8 7 6 5 3 4 3 3 6 5 6 6 6 6 6 6 6 7 6 6 4 4 5
4 1 6 3 3 11 9 6 3 6 7 1 10 8 14 11 5 8 9 7 8 7 7 6 4 5 3 2 4 6 5 6 5 6 6 6 5 5 5 5 4 6 6 6
10 10 5 3 3 13 8 5 8 6 2 2 6 8 10 6 8 15 13 11 9 9 6 5 5 4 2 2 3 3 3 4 4 5 6 6 6 4 4 2 2 4 6 6
7 10 9 12 10 4 13 5 6 4 3 2 6 6 11 9 7 11 11 11 9 9 7 5 6 4 1 2 3 2 4 5 6 5 5 4 4 4 4 3 4 3 3 6
6 7 4 3 8 11 11 5 5 7 5 4 4 7 10 10 10 8 9 8 8 7 7 6 6 5 4 1 2 1 4 4 4 5 5 5 4 5 3 2 3 3 2 4
7 11 9 5 8 4 9 13 9 7 6 6 6 8 11 11 9 12 8 8 8 7 6 6 6 4 4 1 2 1 1 3 3 3 4 4 2 3 5 3 3 3 4 5
8 9 10 10 9 11 6 12 11 10 12 10 10 7 6 10 13 8 8 8 8 8 5 4 4 5 2 3 1 4 5 3 1 3 3 3 3 3 2 3 6 7 10 12
Wind_Direction
261 54 123 133 139 191 216 284 298 274 299 327 333 355 349 4 1 10 354 341 329 333 334 345 356 351 335 354 294 186 187 170 173 166 165 190 183 189 174 175 182 187 188 188
29 19 207 216 256 259 257 248 285 298 337 329 346 15 9 5 7 19 358 343 338 339 347 357 7 359 354 353 358 200 177 174 176 169 163 174 188 179 178 186 196 198 183 193
149 218 293 346 321 19 271 177 244 234 310 92 327 153 5 359 344 351 352 354 335 335 353 1 12 5 10 4 7 352 67 54 172 161 154 137 156 122 177 199 197 214 201 200
219 175 23 325 312 50 299 188 190 308 359 315 68 307 2 351 345 348 351 352 334 343 4 10 12 9 10 3 24 339 49 63 43 35 164 173 187 170 172 195 186 97 67 47
230 115 39 315 104 48 247 306 281 201 347 265 305 1 308 6 349 342 353 359 4 358 10 1 8 15 13 8 32 340 35 61 60 57 57 55 38 14 64 84 101 96 74 56
236 139 146 209 292 225 276 300 281 142 199 45 260 118 316 3 332 342 360 17 3 18 18 19 13 17 14 19 26 332 28 45 44 58 58 53 42 52 60 48 68 83 74 67
340 175 122 95 330 326 21 26 350 5 24 248 36 63 227 273 299 358 13 24 18 12 11 15 15 15 14 7 19 356 44 37 31 44 59 51 41 32 50 57 58 36 69 49
53 348 72 340 124 273 294 96 152 188 319 270 15 352 274 240 255 192 317 356 47 27 22 35 29 28 14 359 344 20 45 50 28 33 47 42 40 28 43 35 74 55 38 5
35 145 101 76 328 58 329 58 226 106 29 44 201 346 314 155 88 64 36 8 33 21 24 23 10 7 16 3 334 13 38 54 49 41 53 56 44 38 43 26 49 58 18 26
344 8 339 95 11 280 248 246 55 2 47 301 287 179 228 184 101 54 56 23 2 20 28 34 37 38 11 347 324 35 43 26 31 41 42 38 48 47 46 33 55 57 310 50
345 104 296 65 48 267 336 346 339 151 138 255 302 251 209 168 157 126 85 74 60 29 28 29 23 2 16 14 20 24 30 33 32 26 33 36 23 67 73 63 42 45 33 40
179 115 189 164 264 223 276 283 266 119 292 250 208 269 152 150 148 138 120 95 81 58 46 44 38 25 23 28 23 25 18 34 25 23 30 37 28 44 57 62 64 60 55 33
165 329 30 354 350 331 258 219 210 229 122 224 143 257 176 133 144 151 141 98 61 90 56 32 33 29 28 30 33 30 26 19 34 35 36 30 36 29 52 45 44 47 61 53
79 108 165 194 183 169 275 258 249 180 145 226 222 173 200 187 181 171 163 152 127 103 95 90 46 32 33 30 32 27 26 14 17 30 40 39 35 34 42 42 46 41 39 52
169 164 195 254 259 252 225 237 246 229 224 183 199 187 213 195 189 183 175 168 143 123 81 53 56 40 27 31 26 24 23 16 16 44 41 26 18 24 35 42 40 49 47 46
224 213 99 291 283 252 255 238 233 235 245 251 253 268 209 191 142 164 172 159 155 159 142 116 85 79 61 42 26 16 5 14 7 42 36 28 29 31 29 32 37 44 43 40
154 126 91 269 352 339 298 224 213 197 204 209 213 221 144 155 173 177 175 168 169 167 151 145 113 96 61 47 42 28 2 19 32 30 22 19 18 26 16 22 34 36 34 35
142 118 109 238 28 281 244 181 176 209 235 218 194 195 186 180 175 150 165 163 166 156 153 128 129 145 109 64 19 11 22 33 45 34 25 15 20 29 13 23 19 15 12 15
134 132 111 148 194 295 280 192 178 182 267 210 210 190 151 118 90 146 167 158 161 159 151 161 171 157 104 68 3 55 39 36 40 23 13 8 17 11 7 14 3 355 355 349
87 80 129 79 150 234 246 186 208 122 287 217 184 173 152 140 159 216 169 143 141 140 156 162 160 124 86 32 29 54 30 32 23 6 351 357 1 7 358 358 347 334 345 326
135 31 177 180 216 283 236 185 169 95 230 290 178 167 162 180 176 145 140 136 145 154 155 143 130 123 106 67 53 44 21 14 345 343 337 341 348 334 327 336 357 339 337 325
170 162 188 121 155 266 154 76 183 208 203 198 151 165 165 143 137 155 155 143 149 151 141 148 138 115 95 108 81 30 354 336 340 343 342 346 339 336 333 326 300 312 315 312
208 188 183 193 206 216 200 185 207 170 171 180 148 159 154 136 156 154 149 148 159 154 156 150 147 144 111 87 65 353 329 354 352 353 332 319 324 331 336 323 301 291 277 307
235 187 217 125 233 218 218 240 204 195 184 191 173 157 155 152 151 145 140 147 150 161 165 157 154 164 158 103 47 305 353 10 16 352 339 330 336 326 294 257 293 273 273 274
190 151 175 267 265 310 243 226 205 201 200 178 172 171 166 145 163 157 155 160 165 163 164 167 169 164 187 185 264 277 6 44 357 328 318 323 302 306 309 285 279 278 254 239
188 173 185 211 204 194 230 210 188 181 202 189 166 161 179 156 161 156 164 167 164 172 158 156 157 138 199 226 283 355 15 42 346 315 322 308 302 290 300 322 307 298 295 306